FW9592 Weather Reports


time (UTC)temp
F
wind
direction
speed
knots
gust
knots
rain 1hr
in
rain 24hr
in
rain mn
in
humidity
%
barometer
mb
20260506201516 56 197 3.5 7.0 0.00 0.74 0.74 97 1006.9
20260506200516 56 212 3.5 12.2 0.01 0.74 0.74 97 1007.0
20260506195516 56 215 3.5 9.6 0.01 0.74 0.74 97 1007.2
20260506194516 56 222 3.5 10.4 0.01 0.74 0.74 97 1007.1
20260506193516 56 201 3.5 7.0 0.02 0.74 0.74 97 1007.3
20260506192516 56 211 4.3 10.4 0.02 0.74 0.74 97 1007.4
20260506191536 56 196 4.3 12.2 0.03 0.74 0.74 97 1007.4
20260506190516 56 223 2.6 9.6 0.04 0.73 0.73 97 1007.5
20260506185516 56 219 4.3 11.3 0.06 0.73 0.73 97 1007.6
20260506184516 56 212 1.7 7.0 0.08 0.73 0.73 98 1007.6
20260506183536 56 175 2.6 9.6 0.10 0.72 0.72 98 1007.6
20260506182516 56 189 1.7 7.0 0.14 0.72 0.72 98 1007.6
20260506181516 56 171 1.7 5.2 0.14 0.71 0.71 98 1007.7
20260506180516 56 197 2.6 6.1 0.14 0.69 0.69 98 1007.8
20260506175556 56 176 2.6 4.3 0.14 0.67 0.67 98 1007.9
20260506174516 55 201 1.7 4.3 0.16 0.65 0.65 98 1007.9
20260506173516 55 198 2.6 7.8 0.16 0.62 0.62 97 1007.8
20260506172516 56 197 3.5 7.0 0.16 0.58 0.58 97 1007.9
20260506171516 56 203 3.5 9.6 0.18 0.57 0.57 97 1007.9
20260506170516 56 180 3.5 7.8 0.19 0.55 0.55 97 1007.9
20260506165516 56 192 2.6 6.1 0.18 0.53 0.53 97 1007.9
20260506164516 56 182 4.3 12.2 0.18 0.49 0.49 97 1007.9
20260506163516 55 159 4.3 12.2 0.17 0.46 0.46 97 1008.0
20260506162516 55 181 4.3 9.6 0.13 0.42 0.42 97 1008.1
20260506161516 55 182 3.5 12.2 0.12 0.39 0.39 97 1008.3
20260506160516 55 178 4.3 8.7 0.11 0.36 0.36 97 1008.5
20260506155516 55 188 3.5 8.7 0.12 0.35 0.35 97 1008.4
20260506154516 55 181 5.2 12.2 0.11 0.31 0.31 96 1008.5
20260506153516 55 179 3.5 9.6 0.11 0.29 0.29 97 1008.4
20260506152517 55 184 4.3 10.4 0.13 0.29 0.29 96 1008.4
20260506151516 55 180 2.6 7.8 0.13 0.27 0.27 96 1008.6
20260506150516 55 205 3.5 9.6 0.13 0.25 0.25 96 1008.7
20260506145516 55 177 4.3 10.4 0.13 0.23 0.23 96 1008.9
20260506144516 55 200 5.2 12.2 0.11 0.20 0.20 96 1009.1
20260506143516 55 188 2.6 8.7 0.12 0.18 0.18 96 1009.1
20260506142516 55 178 3.5 8.7 0.12 0.16 0.16 96 1009.3
20260506141516 55 188 4.3 12.2 0.11 0.14 0.14 96 1009.4
20260506140516 55 190 5.2 10.4 0.10 0.12 0.12 96 1009.6
20260506135516 56 178 4.3 9.6 0.09 0.10 0.10 96 1009.6
20260506134516 56 190 3.5 8.7 0.08 0.09 0.09 95 1009.6
20260506133516 56 195 3.5 8.7 0.05 0.06 0.06 95 1009.6
20260506132516 56 199 4.3 8.7 0.03 0.04 0.04 94 1009.5
20260506131516 56 185 4.3 11.3 0.02 0.03 0.03 93 1009.4
20260506130517 56 193 3.5 10.4 0.02 0.02 0.02 92 1009.3
20260506125536 56 190 3.5 12.2 0.01 0.01 0.01 92 1009.2
20260506124516 56 200 3.5 9.6 0.01 0.01 0.01 92 1009.2
20260506123516 56 192 2.6 7.8 0.01 0.01 0.01 92 1009.2
20260506122516 56 182 2.6 7.8 0.01 0.01 0.01 92 1009.3
20260506121516 56 191 1.7 6.1 0.01 0.01 0.01 90 1009.4
20260506120516 56 180 0.9 6.1 0.00 0.00 0.00 88 1009.6
20260506115557 57 203 2.6 7.8 0.00 0.00 0.00 85 1009.6
20260506114517 58 197 2.6 7.0 0.00 0.00 0.00 81 1009.8
20260506113516 58 184 4.3 8.7 0.00 0.00 0.00 79 1009.8
20260506112516 58 171 2.6 7.8 0.00 0.00 0.00 79 1009.7
20260506111516 58 213 4.3 10.4 0.00 0.00 0.00 77 1009.4
20260506110516 58 200 4.3 7.8 0.00 0.00 0.00 77 1009.4
20260506105516 58 219 1.7 5.2 0.00 0.00 0.00 77 1009.3
20260506104516 58 210 1.7 6.1 0.00 0.00 0.00 75 1009.2
20260506103536 59 186 2.6 5.2 0.00 0.00 0.00 74 1009.2
20260506102516 59 199 1.7 10.4 0.00 0.00 0.00 72 1009.3
20260506101516 59 205 3.5 9.6 0.00 0.00 0.00 71 1009.3
20260506100516 59 208 3.5 8.7 0.00 0.00 0.00 71 1009.1
20260506095516 59 206 1.7 7.8 0.00 0.00 0.00 70 1008.9
20260506094516 59 193 3.5 11.3 0.00 0.00 0.00 70 1009.0
20260506093557 60 191 3.5 10.4 0.00 0.00 0.00 69 1009.2
20260506092516 60 178 4.3 13.9 0.00 0.00 0.00 69 1009.2
20260506091516 60 236 4.3 13.0 0.00 0.00 0.00 68 1009.3
20260506090516 60 215 3.5 10.4 0.00 0.00 0.00 68 1009.3
20260506085516 60 191 1.7 7.0 0.00 0.00 0.00 67 1009.2
20260506084516 60 168 2.6 7.0 0.00 0.00 0.00 67 1009.2
20260506083536 60 213 3.5 8.7 0.00 0.00 0.00 67 1009.3
20260506082516 60 211 4.3 11.3 0.00 0.00 0.00 67 1009.4
20260506081516 60 222 3.5 12.2 0.00 0.00 0.00 68 1009.5
20260506080516 60 197 4.3 9.6 0.00 0.00 0.00 67 1009.5
20260506073516 60 186 2.6 6.1 0.00 0.00 0.00 68 1009.7
20260506072516 59 174 2.6 8.7 0.00 0.00 0.00 68 1009.8
20260506071516 60 177 2.6 9.6 0.00 0.00 0.00 68 1009.9
20260506070516 59 190 2.6 7.0 0.00 0.00 0.00 67 1009.7
20260506062516 60 165 1.7 6.1 0.00 0.00 0.00 65 1010.2
20260506061516 60 204 2.6 7.8 0.00 0.00 0.00 65 1010.4
20260506060516 61 193 2.6 6.1 0.00 0.00 0.00 64 1010.2
20260506050516 62 175 3.5 13.9 0.00 0.00 0.00 62 1010.5
20260506044516 62 197 3.5 12.2 0.00 0.00 0.00 62 1010.6
20260506043516 61 201 2.6 7.0 0.00 0.00 0.00 64 1010.6
20260506042536 61 199 2.6 8.7 0.00 0.00 0.00 63 1010.7
20260506041536 61 187 2.6 7.8 0.00 0.00 0.00 63 1010.7
20260506040516 62 185 3.5 8.7 0.00 0.00 0.00 63 1010.7
20260506035536 62 182 2.6 10.4 0.00 0.00 0.00 63 1010.8
20260506034536 62 177 2.6 7.8 0.00 0.00 0.00 63 1010.7
20260506033516 62 174 2.6 8.7 0.00 0.00 0.00 62 1010.6
20260506032516 63 171 2.6 11.3 0.00 0.00 0.00 62 1010.5
20260506031516 63 177 3.5 13.0 0.00 0.00 0.00 63 1010.5
20260506030516 63 177 3.5 8.7 0.00 0.00 0.00 63 1010.5
20260506025516 62 179 2.6 7.8 0.00 0.00 0.00 65 1010.5
20260506024516 63 217 2.6 5.2 0.00 0.00 0.00 65 1010.6
20260506023516 63 212 1.7 7.8 0.00 0.00 0.00 63 1010.6
20260506022516 63 191 1.7 4.3 0.00 0.00 0.00 64 1010.6
20260506021516 63 213 1.7 3.5 0.00 0.00 0.00 65 1010.6
20260506020536 63 227 0.9 2.6 0.00 0.00 0.00 63 1010.6
20260506015516 63 242 0.0 1.7 0.00 0.00 0.00 63 1010.6
20260506014516 63 242 1.7 2.6 0.00 0.00 0.00 63 1010.5
20260506013536 63 242 0.9 1.7 0.00 0.00 0.00 64 1010.5
20260506012516 63 242 0.9 2.6 0.00 0.00 0.00 65 1010.4
20260506011516 63 0.0 0.0 0.00 0.00 0.00 65 1010.4
20260506010516 63 242 0.0 1.7 0.00 0.00 0.00 66 1010.2
20260506005516 64 0.0 0.0 0.00 0.00 0.00 65 1010.3
20260506004517 64 165 0.0 1.7 0.00 0.00 0.00 66 1010.1
20260506003517 64 167 0.9 5.2 0.00 0.00 0.00 63 1010.1
20260506002517 63 290 0.0 1.7 0.00 0.00 0.00 65 1009.9
20260506001517 63 187 0.9 4.3 0.00 0.00 0.00 66 1009.8
20260506000517 64 0.0 0.9 0.00 0.00 0.00 65 1009.7
20260505235517 65 174 0.9 5.2 0.00 0.00 0.00 60 1009.8
20260505234517 65 233 0.9 6.1 0.00 0.00 0.00 59 1009.6
20260505233517 64 198 0.9 4.3 0.00 0.00 0.00 62 1009.6
20260505232517 64 336 0.0 1.7 0.00 0.00 0.00 64 1009.6
20260505231517 64 336 0.0 1.7 0.00 0.00 0.00 64 1009.5
20260505230517 65 0.0 0.9 0.00 0.00 0.00 64 1009.5
20260505225537 65 336 0.0 1.7 0.00 0.00 0.00 62 1009.4
20260505224517 65 336 0.0 1.7 0.00 0.00 0.00 63 1009.4
20260505223517 65 331 0.9 3.5 0.00 0.00 0.00 63 1009.4
20260505222517 65 56 0.0 2.6 0.00 0.00 0.00 62 1009.3
20260505221517 67 15 3.5 7.8 0.00 0.00 0.00 59 1009.1
20260505220517 68 286 0.9 5.2 0.00 0.00 0.00 50 1008.9
20260505215517 68 257 2.6 7.0 0.00 0.00 0.00 48 1008.9
20260505214516 69 244 2.6 11.3 0.00 0.00 0.00 47 1008.9
20260505213516 70 243 7.8 15.6 0.00 0.00 0.00 43 1009.2
20260505212516 71 204 5.2 16.5 0.00 0.00 0.00 41 1008.8
20260505211516 71 209 3.5 10.4 0.00 0.00 0.00 41 1008.4
20260505210556 72 203 4.3 10.4 0.00 0.00 0.00 41 1008.0
20260505205516 72 216 5.2 21.7 0.00 0.00 0.00 41 1007.9
20260505204536 73 195 8.7 20.9 0.00 0.00 0.00 40 1007.9
20260505203516 74 219 7.8 17.4 0.00 0.00 0.00 38 1007.8
20260505202516 75 191 6.1 20.0 0.00 0.00 0.00 39 1007.9